Weather History for Half Moon Bay, CA

Change the Weather History Date:

Wednesday, May 15, 2013

  Actual Average Record
Temperature  
Mean Temperature 54 °F -  
Max Temperature 57 °F 62 °F 66 °F (2014)
Min Temperature 50 °F 46 °F 46 °F (2014)
Degree Days  
Heating Degree Days 12    
Growing Degree Days 4 (Base 50)    
Moisture  
Dew Point 49 °F    
Average Humidity 82    
Maximum Humidity 94    
Minimum Humidity 72    
Precipitation  
Precipitation 0.00 in - - ()
Sea Level Pressure  
Sea Level Pressure 30.10 in    
Wind  
Wind Speed 12 mph (NNW)    
Max Wind Speed 20 mph    
Max Gust Speed 26 mph    
Visibility 5 miles    
Events      
Averages and records for this station are not official NWS values.
T = Trace of Precipitation, MM = Missing Value Source: NWS Daily Summary

Daily Weather History Graph

Daily Weather History Graph

Search for Another Location

Airport:

Trip Planner

Search our weather history database for the weather conditions in past years. The results will help you decide how hot, cold, wet, or windy it might be!

Date:

Astronomy

May. 15, 2013 Rise Set
Actual Time 6:00 AM PDT 8:12 PM PDT
Civil Twilight 5:31 AM PDT 8:42 PM PDT
Nautical Twilight 4:55 AM PDT 9:18 PM PDT
Astronomical Twilight 4:16 AM PDT 9:57 PM PDT
Moon 10:40 AM PDT (5/15) 12:03 AM PDT (5/15)
Length of Visible Light 15h 10m
Length of Day
14h 12m
Waxing Crescent, 28% of the Moon is Illuminated
May 15
Waxing Crescent
May 17
First Quarter
May 24
Full
May 31
Last Quarter
Jun 8
New

Hourly Weather History & Observations

Time (PDT) Temp. Dew Point Humidity Pressure Visibility Wind Dir Wind Speed Gust Speed Precip Events Conditions
12:15 AM 51.8 °F 46.4 °F 82% 30.09 in 5.0 mi NNW 10.4 mph - N/A   Haze
12:35 AM 51.8 °F 46.4 °F 82% 30.09 in 5.0 mi NW 10.4 mph - N/A   Haze
12:55 AM 51.8 °F 46.4 °F 82% 30.09 in 5.0 mi NW 11.5 mph - N/A   Haze
1:15 AM 51.8 °F 46.4 °F 82% 30.09 in 5.0 mi NNW 11.5 mph - N/A   Haze
1:35 AM 51.8 °F 46.4 °F 82% 30.08 in 5.0 mi NNW 10.4 mph - N/A   Haze
1:55 AM 51.8 °F 46.4 °F 82% 30.08 in 5.0 mi NNW 6.9 mph - N/A   Haze
2:15 AM 50.0 °F 46.4 °F 87% 30.07 in 5.0 mi NW 8.1 mph - N/A   Overcast
2:35 AM 50.0 °F 46.4 °F 87% 30.07 in 5.0 mi NNW 11.5 mph - N/A   Haze
2:55 AM 50.0 °F 46.4 °F 87% 30.07 in 5.0 mi NNW 10.4 mph 16.1 mph N/A   Overcast
3:15 AM 50.0 °F 46.4 °F 87% 30.07 in 5.0 mi NNW 11.5 mph - N/A   Overcast
3:35 AM 50.0 °F 46.4 °F 87% 30.07 in 5.0 mi NNW 10.4 mph - N/A   Overcast
3:55 AM 51.8 °F 46.4 °F 82% 30.07 in 5.0 mi NNW 11.5 mph - N/A   Haze
4:15 AM 50.0 °F 46.4 °F 87% 30.07 in 5.0 mi NNW 9.2 mph - N/A   Overcast
4:35 AM 50.0 °F 46.4 °F 87% 30.07 in 5.0 mi NNW 11.5 mph - N/A   Overcast
4:55 AM 51.8 °F 46.4 °F 82% 30.08 in 5.0 mi NNW 12.7 mph 17.3 mph N/A   Haze
5:15 AM 51.8 °F 48.2 °F 88% 30.08 in 5.0 mi NNW 11.5 mph - N/A   Overcast
5:35 AM 51.8 °F 46.4 °F 82% 30.08 in 5.0 mi NNW 13.8 mph - N/A   Haze
6:15 AM 50.0 °F 46.4 °F 87% 30.08 in 3.0 mi North 8.1 mph - N/A   Mostly Cloudy
6:35 AM 51.8 °F 48.2 °F 88% 30.09 in 4.0 mi NNW 10.4 mph - N/A   Mostly Cloudy
6:55 AM 51.8 °F 48.2 °F 88% 30.09 in 4.0 mi NNW 11.5 mph - N/A   Mostly Cloudy
7:15 AM 51.8 °F 48.2 °F 88% 30.10 in 4.0 mi NNW 11.5 mph - N/A   Mostly Cloudy
7:35 AM 53.6 °F 48.2 °F 82% 30.10 in 4.0 mi NNW 10.4 mph - N/A   Haze
7:55 AM 53.6 °F 48.2 °F 82% 30.10 in 4.0 mi NNW 13.8 mph - N/A   Haze
8:15 AM 53.6 °F 48.2 °F 82% 30.10 in 5.0 mi NNW 15.0 mph - N/A   Haze
8:35 AM 53.6 °F 48.2 °F 82% 30.10 in 5.0 mi North 13.8 mph 19.6 mph N/A   Haze
8:55 AM 55.4 °F 48.2 °F 77% 30.11 in 5.0 mi North 13.8 mph 19.6 mph N/A   Haze
9:15 AM 55.4 °F 48.2 °F 77% 30.12 in 5.0 mi NNW 15.0 mph 19.6 mph N/A   Haze
9:35 AM 55.4 °F 48.2 °F 77% 30.12 in 5.0 mi NNW 15.0 mph 21.9 mph N/A   Haze
9:55 AM 55.4 °F 48.2 °F 77% 30.12 in 5.0 mi NNW 13.8 mph 18.4 mph N/A   Haze
10:15 AM 55.4 °F 48.2 °F 77% 30.13 in 5.0 mi NNW 13.8 mph 19.6 mph N/A   Haze
10:35 AM 55.4 °F 48.2 °F 77% 30.13 in 5.0 mi NNW 13.8 mph - N/A   Haze
10:55 AM 55.4 °F 48.2 °F 77% 30.13 in 5.0 mi NNW 15.0 mph 21.9 mph N/A   Haze
11:15 AM 57.2 °F 50.0 °F 77% 30.13 in 5.0 mi NNW 13.8 mph 20.7 mph N/A   Haze
11:35 AM 57.2 °F 50.0 °F 77% 30.13 in 5.0 mi NNW 16.1 mph 23.0 mph N/A   Haze
11:55 AM 57.2 °F 48.2 °F 72% 30.13 in 6.0 mi NNW 17.3 mph 23.0 mph N/A   Haze
12:15 PM 57.2 °F 48.2 °F 72% 30.13 in 5.0 mi NNW 15.0 mph 20.7 mph N/A   Haze
12:35 PM 57.2 °F 50.0 °F 77% 30.13 in 5.0 mi NW 17.3 mph - N/A   Haze
12:55 PM 57.2 °F 48.2 °F 72% 30.13 in 5.0 mi NW 12.7 mph - N/A   Haze
1:15 PM 57.2 °F 50.0 °F 77% 30.13 in 5.0 mi NNW 12.7 mph 18.4 mph N/A   Haze
1:35 PM 57.2 °F 50.0 °F 77% 30.13 in 5.0 mi NW 13.8 mph 21.9 mph N/A   Haze
1:55 PM 57.2 °F 50.0 °F 77% 30.14 in 5.0 mi NW 15.0 mph 19.6 mph N/A   Haze
2:15 PM 57.2 °F 50.0 °F 77% 30.13 in 5.0 mi NW 17.3 mph - N/A   Haze
2:35 PM 57.2 °F 50.0 °F 77% 30.13 in 5.0 mi NW 13.8 mph - N/A   Haze
2:55 PM 57.2 °F 50.0 °F 77% 30.13 in 5.0 mi NW 12.7 mph 18.4 mph N/A   Haze
3:15 PM 57.2 °F 50.0 °F 77% 30.13 in 5.0 mi NW 17.3 mph 21.9 mph N/A   Haze
3:35 PM 57.2 °F 50.0 °F 77% 30.12 in 5.0 mi NW 15.0 mph 20.7 mph N/A   Haze
3:55 PM 57.2 °F 50.0 °F 77% 30.12 in 5.0 mi NW 13.8 mph - N/A   Haze
4:15 PM 57.2 °F 50.0 °F 77% 30.11 in 5.0 mi NW 13.8 mph - N/A   Haze
4:35 PM 57.2 °F 50.0 °F 77% 30.11 in 5.0 mi NW 13.8 mph 20.7 mph N/A   Haze
4:55 PM 55.4 °F 50.0 °F 82% 30.11 in 5.0 mi NW 15.0 mph - N/A   Haze
5:15 PM 57.2 °F 50.0 °F 77% 30.11 in 5.0 mi NNW 17.3 mph 23.0 mph N/A   Haze
5:35 PM 57.2 °F 50.0 °F 77% 30.11 in 5.0 mi NNW 16.1 mph 19.6 mph N/A   Haze
5:55 PM 57.2 °F 50.0 °F 77% 30.10 in 5.0 mi NNW 16.1 mph 25.3 mph N/A   Haze
6:15 PM 57.2 °F 50.0 °F 77% 30.10 in 5.0 mi NNW 11.5 mph 23.0 mph N/A   Haze
6:35 PM 55.4 °F 50.0 °F 82% 30.09 in 5.0 mi NNW 13.8 mph - N/A   Haze
6:55 PM 55.4 °F 50.0 °F 82% 30.08 in 5.0 mi NNW 11.5 mph 18.4 mph N/A   Haze
7:15 PM 55.4 °F 50.0 °F 82% 30.08 in 5.0 mi NNW 16.1 mph 19.6 mph N/A   Haze
7:35 PM 55.4 °F 50.0 °F 82% 30.08 in 5.0 mi NNW 15.0 mph - N/A   Mostly Cloudy
7:55 PM 55.4 °F 50.0 °F 82% 30.08 in 5.0 mi NNW 15.0 mph 20.7 mph N/A   Mostly Cloudy
8:15 PM 53.6 °F 50.0 °F 88% 30.08 in 5.0 mi NNW 12.7 mph 21.9 mph N/A   Mostly Cloudy
8:35 PM 53.6 °F 50.0 °F 88% 30.08 in 6.0 mi North 13.8 mph 19.6 mph N/A   Overcast
8:55 PM 53.6 °F 50.0 °F 88% 30.09 in 6.0 mi North 12.7 mph 17.3 mph N/A   Overcast
9:15 PM 53.6 °F 50.0 °F 88% 30.09 in 6.0 mi North 12.7 mph - N/A   Overcast
9:55 PM 53.6 °F 50.0 °F 88% 30.10 in 6.0 mi NNW 16.1 mph 23.0 mph N/A   Overcast
10:15 PM 53.6 °F 50.0 °F 88% 30.10 in 5.0 mi North 15.0 mph - N/A   Overcast
10:35 PM 53.6 °F 50.0 °F 88% 30.09 in 5.0 mi NNW 16.1 mph 21.9 mph N/A   Overcast
10:55 PM 53.6 °F 51.8 °F 94% 30.09 in 5.0 mi North 19.6 mph 23.0 mph N/A   Overcast
11:15 PM 53.6 °F 51.8 °F 94% 30.08 in 2.5 mi North 15.0 mph 26.5 mph N/A   Overcast
11:35 PM 53.6 °F 51.8 °F 94% 30.08 in 3.0 mi North 19.6 mph 26.5 mph N/A   Overcast
11:55 PM 53.6 °F 51.8 °F 94% 30.08 in 2.5 mi North 16.1 mph 21.9 mph N/A   Overcast